Location: Miami, Florida
(25.6830°N, 80.1700°W)
Time: 21:18:52
(UTC-04:00)

Vanguard 2 - All Passes

Search period start: 17 February 2018 00:00
Search period end: 27 February 2018 00:00
Orbit: 553 x 2939 km, 32.9° (Epoch: 16 February)

Date Brightness Start Highest point End Pass type
(mag) Time Alt. Az. Time Alt. Az. Time Alt. Az.
17 Feb - 00:11:27 10° WNW 00:15:46 52° NNE 00:19:37 10° E night (unlit)
17 Feb - 02:20:22 10° W 02:23:52 29° SSW 02:27:56 10° SSE night (unlit)
17 Feb - 15:43:31 10° SSW 15:54:53 25° SSE 16:03:16 10° E daylight
17 Feb - 17:53:12 10° SW 18:06:01 60° SSE 18:13:38 10° ENE daylight
17 Feb - 20:06:24 10° W 20:15:48 62° NNW 20:21:26 10° ENE visible
17 Feb - 22:19:28 10° WNW 22:25:08 37° N 22:29:12 10° ENE visible
18 Feb - 00:29:34 10° WNW 00:33:54 78° NNE 00:37:52 10° ESE night (unlit)
18 Feb - 02:39:14 10° WSW 02:41:56 17° SSW 02:44:58 10° SSE night (unlit)
18 Feb - 13:58:37 10° SSE 14:01:00 10° SE 14:03:19 10° SE daylight
18 Feb - 16:00:10 10° SSW 16:13:21 34° SSE 16:22:27 10° E daylight
18 Feb - 18:11:18 10° WSW 18:24:16 77° SSE 18:31:47 10° ENE daylight
18 Feb - 20:25:10 10° W 20:34:03 52° NNW 20:39:28 10° ENE visible
18 Feb - 22:37:54 10° WNW 22:43:27 41° N 22:47:29 10° ENE visible
19 Feb - 00:47:44 10° WNW 00:51:58 64° SSW 00:55:55 10° SE night (unlit)
19 Feb - 14:10:34 10° S 14:19:42 17° SE 14:27:30 10° ESE daylight
19 Feb - 16:17:20 10° SW 16:31:44 45° SSE 16:41:10 10° E daylight
19 Feb - 18:29:41 10° WSW 18:42:30 87° NNW 18:49:52 10° ENE daylight
19 Feb - 20:43:58 10° W 20:52:21 47° N 20:57:34 10° ENE visible
19 Feb - 22:56:13 10° WNW 23:01:45 49° NNE 23:05:47 10° E visible
20 Feb - 01:06:05 10° W 01:09:57 36° SSW 01:13:40 10° SE night (unlit)
20 Feb - 14:25:59 10° SSW 14:38:14 24° SE 14:48:01 10° E daylight
20 Feb - 16:34:55 10° SW 16:50:04 57° SSE 16:59:36 10° ENE daylight
20 Feb - 18:48:19 10° WSW 19:00:45 73° NNW 19:07:56 10° ENE daylight
20 Feb - 21:02:43 10° WNW 21:10:42 45° N 21:15:45 10° ENE visible
20 Feb - 23:14:28 10° WNW 23:19:58 67° NNE 23:24:02 10° E visible
21 Feb - 01:24:46 10° W 01:27:53 21° SSW 01:30:56 10° SSE night (unlit)
21 Feb - 14:42:23 10° SSW 14:56:39 33° SSE 15:07:30 10° E daylight
21 Feb - 16:52:53 10° SW 17:08:22 71° SSE 17:17:51 10° ENE daylight
21 Feb - 19:07:07 10° W 19:19:02 63° NNW 19:25:59 10° ENE daylight
21 Feb - 21:21:23 10° WNW 21:29:05 46° N 21:33:59 10° ENE visible
21 Feb - 23:32:43 10° WNW 23:38:06 84° SSW 23:42:08 10° ESE visible
22 Feb - 01:44:35 10° SW 01:45:48 11° SW 01:47:01 10° SSW night (unlit)
22 Feb - 12:54:23 10° S 13:02:38 15° SE 13:10:16 10° ESE daylight
22 Feb - 14:59:21 10° SSW 15:15:01 43° SSE 15:26:25 10° E daylight
22 Feb - 17:11:08 10° WSW 17:26:38 85° SSE 17:36:00 10° ENE daylight
22 Feb - 19:26:00 10° W 19:37:23 56° NNW 19:44:05 10° ENE visible
22 Feb - 21:39:54 10° WNW 21:47:27 51° N 21:52:15 10° E visible
22 Feb - 23:51:02 10° WNW 23:56:05 51° SSW 23:59:59 10° SE night (unlit)
23 Feb - 13:09:09 10° S 13:21:06 22° SE 13:31:41 10° E daylight
23 Feb - 15:16:45 10° SW 15:33:21 54° SSE 15:44:59 10° ENE daylight
23 Feb - 17:29:40 10° WSW 17:44:57 82° NNW 17:54:06 10° ENE daylight
23 Feb - 19:44:55 10° W 19:55:48 53° N 20:02:16 10° ENE visible
23 Feb - 21:58:19 10° WNW 22:05:46 63° NNE 22:10:30 10° E visible
24 Feb - 00:09:34 10° W 00:13:58 30° SW 00:17:32 10° SSE night (unlit)
24 Feb - 13:25:12 10° SSW 13:39:26 30° SE 13:51:37 10° E daylight
24 Feb - 15:34:30 10° SW 15:51:39 66° SSE 16:03:21 10° ENE daylight
24 Feb - 17:48:25 10° W 18:03:18 71° NNW 18:12:12 10° ENE daylight
24 Feb - 20:03:45 10° WNW 20:14:14 52° N 20:20:30 10° ENE visible
24 Feb - 22:16:41 10° WNW 22:23:59 82° NNE 22:28:39 10° ESE visible
25 Feb - 00:28:35 10° W 00:31:44 17° SW 00:34:29 10° S night (unlit)
25 Feb - 11:40:20 10° SSE 11:45:25 12° SE 11:50:28 10° ESE daylight
25 Feb - 13:41:55 10° SSW 13:57:42 39° SE 14:10:50 10° E daylight
25 Feb - 15:52:35 10° WSW 16:09:58 79° SSE 16:21:36 10° ENE daylight
25 Feb - 18:07:18 10° W 18:21:43 64° NNW 18:30:20 10° ENE daylight
25 Feb - 20:22:28 10° WNW 20:32:41 55° N 20:38:46 10° E visible
25 Feb - 22:35:03 10° WNW 22:42:04 71° SSW 22:46:37 10° ESE visible
26 Feb - 11:53:27 10° S 12:03:46 18° SE 12:13:53 10° ESE daylight
26 Feb - 13:59:06 10° SW 14:15:58 50° SSE 14:29:38 10° ENE daylight
26 Feb - 16:10:57 10° WSW 16:28:19 89° NNW 16:39:46 10° ENE daylight
26 Feb - 18:26:16 10° W 18:40:12 60° N 18:48:32 10° ENE daylight
26 Feb - 20:41:05 10° WNW 20:51:06 62° N 20:57:00 10° E visible
26 Feb - 22:53:31 10° WNW 22:59:59 46° SSW 23:04:21 10° SE visible
